Weather History for Summerville, SC

Change the Weather History Date:

Saturday, June 29, 2013

  Actual Average (KCHS) Record (KCHS)
Temperature  
Mean Temperature 79 °F 81 °F  
Max Temperature 87 °F 90 °F 99 °F (1998)
Min Temperature 71 °F 72 °F 60 °F (1981)
Degree Days  
Heating Degree Days 0 0  
Month to date heating degree days 0  
Since 1 June heating degree days 0  
Since 1 July heating degree days 1975  
Cooling Degree Days 14 16  
Month to date cooling degree days 405  
Year to date cooling degree days 767  
Since 1 June cooling degree days 405  
Growing Degree Days 29 (Base 50)    
Moisture  
Dew Point 74 °F    
Average Humidity 85    
Maximum Humidity 100    
Minimum Humidity 62    
Precipitation  
Precipitation 0.00 in 0.22 in 1.54 in (2000)
Month to date precipitation 5.43  
Year to date precipitation 21.74  
Sea Level Pressure  
Sea Level Pressure 29.73 in    
Wind  
Wind Speed 6 mph (SSW)    
Max Wind Speed 12 mph    
Max Gust Speed 20 mph    
Visibility 10 miles    
Events Rain , Thunderstorm    
T = Trace of Precipitation, MM = Missing Value Source: NWS Daily Summary

Daily Weather History Graph

Daily Weather History Graph

Search for Another Location

Airport:

Trip Planner

Search our weather history database for the weather conditions in past years. The results will help you decide how hot, cold, wet, or windy it might be!

Date:

Astronomy

Jun. 29, 2013 Rise Set
Actual Time 6:15 AM EDT 8:33 PM EDT
Civil Twilight 5:46 AM EDT 9:02 PM EDT
Nautical Twilight 5:11 AM EDT 9:37 PM EDT
Astronomical Twilight 4:33 AM EDT 10:15 PM EDT
Moon 12:23 AM EDT (6/29) 1:01 PM EDT (6/29)
Length of Visible Light 15h 16m
Length of Day
14h 18m
Waning Gibbous, 56% of the Moon is Illuminated
Jun 29
Waning Gibbous
Jun 30
Last Quarter
Jul 8
New
Jul 15
First Quarter
Jul 22
Full

Hourly Weather History & Observations

Time (EDT) Temp. Heat Index Dew Point Humidity Pressure Visibility Wind Dir Wind Speed Gust Speed Precip Events Conditions
5:35 AM 73.4 °F - 69.8 °F 88% 29.74 in 10.0 mi SW 9.2 mph 17.3 mph N/A Rain Light Rain
5:55 AM 71.6 °F - 71.6 °F 100% 29.74 in 7.0 mi SW 8.1 mph 18.4 mph N/A Rain Rain
6:15 AM 71.6 °F - 71.6 °F 100% 29.74 in 10.0 mi SSW 5.8 mph - N/A   Mostly Cloudy
6:35 AM 71.6 °F - 71.6 °F 100% 29.74 in 10.0 mi SSW 4.6 mph - N/A   Overcast
6:55 AM 71.6 °F - 71.6 °F 100% 29.74 in 10.0 mi South 5.8 mph - N/A   Overcast
7:15 AM 71.6 °F - 71.6 °F 100% 29.74 in 10.0 mi South 4.6 mph - N/A   Mostly Cloudy
7:35 AM 71.6 °F - 71.6 °F 100% 29.74 in 10.0 mi Calm Calm - N/A   Scattered Clouds
7:55 AM 71.6 °F - 71.6 °F 100% 29.74 in 10.0 mi SSW 3.5 mph - N/A   Scattered Clouds
8:15 AM 71.6 °F - 71.6 °F 100% 29.74 in 10.0 mi Calm Calm - N/A   Mostly Cloudy
8:35 AM 75.2 °F - 71.6 °F 89% 29.74 in 10.0 mi SSW 4.6 mph - N/A   Scattered Clouds
8:55 AM 77.0 °F - 71.6 °F 83% 29.73 in 10.0 mi SW 8.1 mph - N/A   Clear
9:15 AM 77.0 °F - 71.6 °F 83% 29.73 in 10.0 mi SW 6.9 mph - N/A   Clear
9:35 AM 78.8 °F - 71.6 °F 78% 29.73 in 10.0 mi SW 6.9 mph - N/A   Scattered Clouds
9:55 AM 78.8 °F - 71.6 °F 78% 29.73 in 10.0 mi WSW 5.8 mph - N/A   Mostly Cloudy
10:15 AM 80.6 °F 84.6 °F 71.6 °F 74% 29.72 in 10.0 mi SSW 5.8 mph - N/A   Scattered Clouds
10:35 AM 80.6 °F 84.6 °F 71.6 °F 74% 29.73 in 10.0 mi SSW 8.1 mph - N/A   Clear
10:55 AM 80.6 °F 84.6 °F 71.6 °F 74% 29.73 in 10.0 mi SSW 5.8 mph - N/A   Clear
11:15 AM 82.4 °F 87.2 °F 71.6 °F 70% 29.73 in 10.0 mi South 4.6 mph - N/A   Clear
11:35 AM 84.2 °F 89.6 °F 71.6 °F 66% 29.74 in 10.0 mi SW 9.2 mph - N/A   Clear
11:55 AM 84.2 °F 89.6 °F 71.6 °F 66% 29.74 in 10.0 mi SW 9.2 mph - N/A   Scattered Clouds
12:15 PM 82.4 °F 87.2 °F 71.6 °F 70% 29.74 in 10.0 mi SW 9.2 mph 16.1 mph N/A   Mostly Cloudy
12:35 PM 86.0 °F 91.8 °F 71.6 °F 62% 29.73 in 10.0 mi SSW 9.2 mph - N/A   Scattered Clouds
12:55 PM 86.0 °F 93.4 °F 73.4 °F 66% 29.73 in 10.0 mi SSW 9.2 mph - N/A   Scattered Clouds
1:15 PM 82.4 °F 87.2 °F 71.6 °F 70% 29.73 in 10.0 mi SSW 6.9 mph - N/A   Mostly Cloudy
1:35 PM 86.0 °F 93.4 °F 73.4 °F 66% 29.73 in 10.0 mi SSW 6.9 mph - N/A   Overcast
1:55 PM 86.0 °F 93.4 °F 73.4 °F 66% 29.72 in 10.0 mi SSW 5.8 mph - N/A   Overcast
2:15 PM 86.0 °F 93.4 °F 73.4 °F 66% 29.72 in 10.0 mi SW 8.1 mph - N/A   Mostly Cloudy
2:35 PM 87.8 °F 95.6 °F 73.4 °F 62% 29.72 in 10.0 mi SW 11.5 mph 16.1 mph N/A   Mostly Cloudy
2:55 PM 87.8 °F 95.6 °F 73.4 °F 62% 29.72 in 10.0 mi SSW 5.8 mph - N/A   Scattered Clouds
3:15 PM 86.0 °F 93.4 °F 73.4 °F 66% 29.72 in 10.0 mi SSW 5.8 mph - N/A   Mostly Cloudy
3:35 PM 87.8 °F 97.6 °F 75.2 °F 66% 29.72 in 10.0 mi SSW 8.1 mph - N/A   Mostly Cloudy
3:55 PM 86.0 °F 93.4 °F 73.4 °F 66% 29.72 in 10.0 mi SW 6.9 mph - N/A   Scattered Clouds
4:15 PM 86.0 °F 93.4 °F 73.4 °F 66% 29.72 in 10.0 mi SW 6.9 mph - N/A   Clear
4:35 PM 86.0 °F 93.4 °F 73.4 °F 66% 29.71 in 10.0 mi SW 5.8 mph - N/A   Clear
4:55 PM 82.4 °F 89.5 °F 75.2 °F 79% 29.71 in 10.0 mi SSW 3.5 mph - N/A   Clear
5:15 PM 78.8 °F - 73.4 °F 83% 29.73 in 1.8 mi SSE 10.4 mph 19.6 mph N/A Rain , Thunderstorm Heavy Thunderstorms and Rain
5:35 PM 77.0 °F - 73.4 °F 89% 29.71 in 10.0 mi Calm Calm - N/A   Scattered Clouds
5:55 PM 77.0 °F - 77.0 °F 100% 29.71 in 10.0 mi Calm Calm - N/A   Scattered Clouds
6:15 PM 78.8 °F - 77.0 °F 94% 29.71 in 10.0 mi Calm Calm - N/A Rain Light Rain
6:35 PM 78.8 °F - 77.0 °F 94% 29.71 in 10.0 mi Calm Calm - N/A   Clear
6:55 PM 78.8 °F - 77.0 °F 94% 29.71 in 10.0 mi SE 3.5 mph - N/A   Scattered Clouds
7:15 PM 78.8 °F - 77.0 °F 94% 29.73 in 10.0 mi SSE 5.8 mph - N/A   Overcast
7:35 PM 77.0 °F - 75.2 °F 94% 29.73 in 10.0 mi SSE 3.5 mph - N/A   Overcast
7:55 PM 77.0 °F - 77.0 °F 100% 29.73 in 10.0 mi SSE 4.6 mph - N/A   Mostly Cloudy
8:15 PM 77.0 °F - 77.0 °F 100% 29.73 in 10.0 mi SSE 4.6 mph - N/A   Scattered Clouds
8:35 PM 77.0 °F - 77.0 °F 100% 29.73 in 10.0 mi SSE 3.5 mph - N/A   Scattered Clouds
8:55 PM 77.0 °F - 77.0 °F 100% 29.73 in 10.0 mi Calm Calm - N/A   Clear
9:15 PM 77.0 °F - 77.0 °F 100% 29.73 in 10.0 mi SSE 3.5 mph - N/A   Scattered Clouds
9:35 PM 77.0 °F - 75.2 °F 94% 29.75 in 10.0 mi SSE 3.5 mph - N/A   Scattered Clouds
9:55 PM 77.0 °F - 75.2 °F 94% 29.76 in 10.0 mi Calm Calm - N/A   Scattered Clouds
10:15 PM 75.2 °F - 75.2 °F 100% 29.77 in 10.0 mi Calm Calm - N/A   Scattered Clouds
10:35 PM 75.2 °F - 75.2 °F 100% 29.78 in 10.0 mi Calm Calm - N/A   Mostly Cloudy
10:55 PM 75.2 °F - 75.2 °F 100% 29.78 in 10.0 mi South 3.5 mph - N/A   Mostly Cloudy
11:15 PM 77.0 °F - 75.2 °F 94% 29.77 in 10.0 mi Calm Calm - N/A   Mostly Cloudy
11:35 PM 75.2 °F - 75.2 °F 100% 29.77 in 10.0 mi Calm Calm - N/A   Scattered Clouds
11:55 PM 75.2 °F - 73.4 °F 94% 29.77 in 10.0 mi Calm Calm - N/A   Scattered Clouds